Location: Kott?ru
(16.7571°N, 80.8309°E)
Time: 12:07:23
(UTC+00:00)

Daily predictions for brighter satellites

Satellite Brightness Start Highest point End
(mag) Time Altitude Azimuth Time Altitude Azimuth Time Altitude Azimuth
Cosmos 1500 Rocket 3.7 13:19:30 10° SSE 13:23:38 47° E 13:27:46 10° NNE
Cosmos 1302 Rocket 4.0 13:18:30 10° N 13:23:41 67° ENE 13:28:52 10° SSE
Yuri Rocket 3.8 13:20:27 10° WSW 13:25:40 57° NNW 13:29:53 10° ENE
CENTAUR R/B 3.5 13:22:50 10° SE 13:26:01 16° ESE 13:29:21 10° ENE
Cosmos 292 Rocket 3.7 13:21:48 10° N 13:26:31 67° ENE 13:31:14 10° SSE
CZ-2D R/B 3.3 13:24:01 10° S 13:27:48 87° W 13:31:36 10° NNW
CSL-04 Rocket 4.1 13:23:43 10° SE 13:28:39 40° ENE 13:33:33 10° N
Iridium 2 3.7 13:28:01 10° N 13:31:43 59° E 13:35:23 10° SSE
Delta 202 4.4 13:23:03 10° W 13:31:54 78° N 13:37:57 10° E
Cosmos 1441 Rocket 4.2 13:30:58 10° SSE 13:34:10 26° E 13:37:21 10° NE
ARGOS 4.2 13:33:23 10° SE 13:37:41 25° ENE 13:41:57 10° NNE
HJ-1C 4.1 13:35:26 10° SE 13:38:29 34° ENE 13:41:33 10° NNE
Okean-O 3.5 13:34:41 10° S 13:39:00 54° W 13:43:19 10° NNW
COSMOS 2406 4.4 13:36:31 10° SW 13:42:02 48° WNW 13:47:33 10° N
Cosmos 2082 Rocket 2.3 13:36:58 10° S 13:42:30 54° ESE 13:48:01 10° NNE
CZ-4 R/B 2.0 13:39:07 10° S 13:42:55 57° W 13:46:46 10° NNW
Cosmos 1328 Rocket 3.6 13:39:47 10° N 13:44:14 88° W 13:48:40 10° S
Ariane Rocket 4.4 13:41:42 12° ESE 13:44:28 18° ENE 13:47:51 10° NNE
GPS 2-15 Rocket1 3.7 13:40:33 10° SW 13:44:51 37° SSE 13:48:12 15° E
Sakura Rocket 4.1 13:36:44 10° WNW 13:44:59 83° NNE 13:49:55 15° ESE
Cosmos 1805 Rocket 4.0 13:43:27 10° SSE 13:47:34 40° E 13:51:43 10° NNE
Cosmos 1782 3.3 13:44:20 10° NNE 13:48:04 37° E 13:51:49 10° SSE
Cosmos 407 Rocket 3.5 13:43:01 10° S 13:48:21 79° ESE 13:53:39 10° NNE
SL-08 R/B 4.5 13:42:29 10° S 13:48:42 65° E 13:54:47 10° NNE
Cosmos 1190 Rocket 4.0 13:45:09 10° S 13:50:19 63° ESE 13:55:31 10° NNE
CZ-3B R/B 3.2 13:51:06 10° WNW 13:54:03 74° NNE 13:59:38 17° ESE
CZ-2C R/B 2.8 13:50:01 10° NNE 13:55:02 47° E 14:00:08 10° S
Cosmos 1992 Rocket 4.3 13:51:26 10° N 13:56:27 47° ENE 14:00:39 14° SE
Cosmos 1140 Rocket 3.4 13:55:29 10° S 14:00:42 79° ESE 14:05:57 10° NNE
Cosmos 1339 Rocket 4.4 13:54:56 10° N 14:01:12 79° E 14:07:22 10° S
deb Kosmos-1763 3.9 13:58:11 10° S 14:01:43 62° ESE 14:05:17 10° NNE
ARIANE 5 R/B 4.4 13:39:49 10° WSW 14:02:15 28° SSW 14:06:22 15° SSE
Cosmos 1023 Rocket 4.5 13:57:51 10° SSW 14:03:06 87° ESE 14:08:23 10° NNE
Meteor 1-26 Rocket 4.2 13:59:00 10° N 14:04:25 78° W 14:09:48 10° S
Cosmos 1633 Rocket 4.3 14:06:01 22° E 14:06:01 22° E 14:09:01 10° NE
Aureole 1 Rocket 4.0 14:00:04 10° S 14:05:39 59° E 14:12:52 10° NNE
NOSS 3-2 (A) 3.2 14:00:20 10° SSW 14:05:41 81° WNW 14:11:23 10° NNE
NOSS 3-2 (C) 3.1 14:09:33 10° SSW 14:14:51 62° ESE 14:20:25 10° NNE
ATLAS 5 CENTAUR R/B 3.2 14:13:34 10° N 14:19:37 39° ENE 14:22:13 29° ESE
Cosmos 2084 Rocket 3.3 14:18:03 10° SSW 14:22:04 55° ESE 14:26:08 10° NE
Meteor 2-6 Rocket 4.3 14:17:51 10° N 14:23:26 57° E 14:26:34 27° SSE
USA 267 3.5 14:19:53 10° NNE 14:26:22 70° NW 14:32:52 10° SW
Cosmos 1934 Rocket 4.2 14:23:57 22° SSE 14:27:48 46° E 14:33:49 10° NNE
CZ-2C R/B 3.9 14:25:08 10° S 14:29:50 44° W 14:34:23 10° NNW
H-2A R/B 2.6 14:26:28 10° S 14:31:37 57° W 14:36:37 10° NNW
Cosmos 1656 3.8 14:26:38 10° N 14:32:01 50° ENE 14:33:06 44° ESE
IRS-1A Rocket 4.2 14:34:37 35° SSE 14:37:02 73° ENE 14:42:42 10° N
Sich 1 3.8 14:35:38 10° SSW 14:39:55 52° W 14:44:14 10° N
Cosmos 1697 Rocket 3.8 14:36:30 10° N 14:40:23 28° NE 14:40:23 28° NE
CZ-2C R/B 3.6 14:37:53 10° N 14:42:22 86° WNW 14:44:28 31° SSW
SJ-6B 2.9 14:43:07 66° NNE 14:43:07 66° NNE 14:46:42 10° N
Cosmos 1727 Rocket 4.1 14:37:05 10° N 14:43:25 78° W 14:48:30 16° S
Cosmos 2228 Rocket 3.7 14:42:33 10° NNW 14:46:49 53° W 14:48:37 31° SSW
Resurs 01 Rocket 4.1 14:55:04 12° NNE 14:55:04 12° NNE 14:55:25 10° NNE
GPS 2-17 Rocket1 3.3 14:50:19 10° W 14:54:08 59° WSW 14:54:08 59° WSW
VEP-3 3.4 14:51:45 10° WNW 14:57:29 87° NNE 15:02:03 41° ESE
SPOT 3 Rocket 4.5 14:59:51 36° NNE 14:59:51 36° NNE 15:03:14 10° N
Meteor 1-27 Rocket 4.0 14:55:45 10° N 15:00:51 57° NE 15:00:51 57° NE
Palapa 6 Rocket 4.3 14:55:39 10° WNW 15:03:22 83° SSW 15:04:52 63° ESE
ATLAS 2A CENTAUR R/B 4.2 14:12:24 10° WSW 15:08:09 77° SSE 15:12:52 43° E
CENTAUR R/B 3.6 15:11:07 10° SW 15:16:00 36° WNW 15:21:28 10° N
CZ-3A R/B 3.7 14:44:41 10° WNW 15:17:53 74° N 15:20:48 52° ENE
Cosmos 1605 Rocket 4.4 15:25:29 53° N 15:25:29 53° N 15:30:00 10° N
ATLAS 5 CENTAUR R/B 3.7 15:25:33 10° SW 15:49:35 11° ENE 15:50:21 10° ENE
ATLAS 5 CENTAUR R/B 4.2 15:58:42 10° WNW 16:03:48 27° WSW 16:03:48 27° WSW
Cosmos 1980 Rocket 4.5 16:06:14 10° NNW 16:07:42 19° NNW 16:07:42 19° NNW
Lacrosse 5 rocket 3.9 21:46:37 20° ENE 21:46:37 20° ENE 21:48:21 10° NE
ATLAS 3B CENTAUR R/B 3.8 21:36:47 22° WNW 21:46:31 58° N 21:53:08 10° E
Intelsat 5-1 Rocket 3.8 21:57:29 66° SSW 21:58:47 74° SSE 22:20:34 10° ENE
USA 281 3.7 21:58:35 10° NNE 22:04:59 55° ESE 22:06:53 42° SSE
ATLAS 2AS CENTAUR R/B 4.2 22:09:49 16° SSE 22:15:07 36° ESE 22:22:11 10° NE
Atlas Centaur 2 4.2 22:16:24 19° NW 22:19:31 26° N 22:25:50 10° NE
Cosmos 883 Rocket 4.3 22:24:24 69° WSW 22:24:55 73° W 22:31:09 10° N
Centaur AC-72 2.9 22:25:39 50° W 22:27:24 89° S 22:37:50 10° E
SeaSat 1 2.8 22:22:37 10° NNE 22:26:43 53° NNW 22:26:43 53° NNW
SWIFT 3.2 22:30:45 43° ESE 22:30:45 43° ESE 22:33:56 10° E
DELTA 2 R/B (1) 3.6 22:32:18 61° WNW 22:32:47 64° NW 22:38:20 10° NE
Cosmos 494 Rocket 4.1 22:28:16 10° N 22:33:27 72° ENE 22:38:39 10° SSE
PSLV R/B 4.3 22:33:36 10° N 22:36:42 41° NNW 22:36:42 41° NNW
Aureole 2 Rocket 4.4 22:38:07 20° E 22:38:07 20° E 22:40:14 10° NE
Meteor 1-31 Rocket 4.4 22:41:37 10° NE 22:45:03 32° E 22:48:19 11° SSE
Cosmos 1745 Rocket 4.0 22:39:10 10° NNW 22:45:12 56° W 22:48:07 30° SSW
Cosmos 1484 Rocket 4.0 22:43:43 10° NNE 22:47:13 38° E 22:50:07 14° SSE
GPS 2-12 Rocket1 3.0 22:47:27 60° W 22:48:17 85° N 22:53:06 10° ENE
Hubble Space Telescope 3.1 22:46:51 13° NNW 22:48:31 16° N 22:51:03 10° NE
DELTA 4 R/B 3.8 22:42:21 29° WSW 22:50:48 70° SSE 22:55:34 10° ENE
CZ-2C R/B 2.5 22:46:42 10° N 22:51:11 48° WNW 22:51:34 47° W
deb Chang Zheng 4 3.5 22:46:53 10° N 22:51:11 66° WNW 22:51:59 53° SW
Cosmos 1812 Rocket 3.6 22:50:25 25° S 22:52:53 78° E 22:57:11 10° N
Cosmos 1932 4.5 22:47:28 10° NW 22:53:39 55° WSW 22:59:40 10° S
CZ-4B R/B 3.2 22:56:42 10° SE 22:59:42 33° ENE 23:02:38 10° NNE
GPS 2-18 Rocket1 3.6 23:02:32 37° SSW 23:02:32 37° SSW 23:05:52 10° SE
Delta 142 3.4 23:02:35 45° WSW 23:03:20 52° SSW 23:07:28 10° SE
Cosmos 2278 Rocket 2.2 23:01:43 26° SSW 23:04:57 64° WNW 23:10:34 10° N
ADEOS 3.6 22:59:54 10° N 23:05:01 60° WNW 23:08:31 20° SSW
H-2A R/B 2.8 23:08:45 30° W 23:08:45 30° W 23:11:42 10° NW
Cosmos 1400 Rocket 2.6 23:09:27 21° SSW 23:12:01 68° W 23:15:52 10° N
Cosmos 1455 2.2 23:11:25 24° SSW 23:13:29 55° W 23:17:15 10° N
Chandra Rocket (1) 3.1 23:08:42 21° WSW 23:16:08 77° NNW 23:20:09 10° ENE
CZ-4B R/B 3.4 23:15:44 10° NNE 23:20:04 65° ESE 23:24:13 10° S
ASTEX 1 3.7 23:16:34 10° NNE 23:21:27 71° E 23:26:20 10° S
ASTRO E2 2.6 23:20:01 26° WSW 23:22:06 78° NNW 23:26:03 10° ENE
USA 102 4.2 23:22:06 31° WSW 23:23:11 36° W 23:28:50 10° NW
Lacrosse 5 rocket 3.3 23:22:17 15° WNW 23:23:27 16° NW 23:26:16 10° NNW
SEDSat Delta rocket 4.1 23:19:58 20° WSW 23:24:38 76° NNW 23:31:27 10° ENE
Cosmos 1709 Rocket 4.2 23:19:17 10° NNW 23:25:05 47° W 23:30:52 10° SSW
ERS-2 3.3 23:25:25 22° W 23:25:25 22° W 23:28:05 10° NW
Cosmos 1689 Rocket 4.5 23:23:21 10° SE 23:25:52 27° ENE 23:28:22 10° NNE
ALOS 2.3 23:21:42 10° N 23:26:18 63° WNW 23:30:54 10° SSW
Meteor 2-10 Rocket 4.1 23:29:09 11° SW 23:33:28 34° W 23:38:12 10° NNW
COSMOS 2455 4.1 23:33:07 10° S 23:38:43 43° ESE 23:44:21 10° NE
CREW DRAGON DEMO-1 DEB 3.2 23:37:04 16° WSW 23:39:11 46° NW 23:42:08 10° NNE
SAR-Lupe-4 3.8 23:36:32 10° S 23:39:58 46° W 23:43:24 10° NNW
ATLAS 2A CENTAUR R/B 1.7 23:38:49 16° W 23:40:16 27° SSW 23:42:01 10° SE
Cosmos 1315 Rocket 3.0 23:36:44 10° S 23:40:49 79° E 23:44:56 10° N
Cosmos-2242 3.0 23:36:44 10° SSW 23:41:01 60° W 23:45:19 10° N
NOSS 3-4 (A) 4.0 23:37:09 12° SW 23:42:08 37° WNW 23:47:34 10° N
NOSS 3-4 (C) 3.9 23:37:14 12° SW 23:42:16 37° WNW 23:47:43 10° N
ATLAS 2A CENTAUR R/B 2.2 23:40:46 13° W 23:43:26 50° SSW 23:52:45 10° ESE
Nadezhda 1 Rocket 4.0 23:37:50 10° S 23:44:12 75° W 23:50:35 10° N
GPS 2-04 Rocket1 2.8 23:41:47 14° WSW 23:44:42 51° NNW 23:48:19 10° NE
USA 81 4.4 23:40:22 10° N 23:45:38 72° E 23:50:53 10° S
Cosmos 2058 3.2 23:42:55 10° NNW 23:46:55 46° W 23:50:57 10° SSW
Cosmos 2297 3.9 23:47:35 10° SSW 23:53:18 79° ESE 23:59:01 10° NNE
